This demonstration page uses our WeatherBlox Daily Observations layout. Learn more.

Hourly Observations for November 29, 2019

Temp ( °F °C ) Dew Point ( °F °C ) Humidity (%) Winds ( mph kmh ) Pressure ( in mb ) Visibility ( mi km ) Precip ( " mm )
12:15 am 00:15 Cloudy with Mist and Fog 31 -0.5 31 -0.5 100 100 SE 12 19 30.24 1024 0.75 1.207005 0 0
12:35 am 00:35 Cloudy with Light Snow 31 -0.5 31 -0.5 100 100 SE 12 19 30.23 1024 1.25 2.011675 0 0
12:55 am 00:55 Cloudy with Mist and Fog 31 -0.5 31 -0.5 100 100 SE 13 20 30.22 1023 2 3.21868 0 0
1:15 am 01:15 Cloudy with Mist and Fog 31 -0.5 31 -0.5 100 100 SE 10 17 30.22 1023 1.25 2.011675 0 0
1:35 am 01:35 Cloudy with Mist and Fog 31 -0.5 31 -0.5 100 100 SE 12 19 30.2 1023 0.75 1.207005 0 0
1:55 am 01:55 Cloudy with Mist and Fog 31 -0.5 31 -0.5 100 100 SE 12 19 30.2 1023 1.25 2.011675 0 0
2:15 am 02:15 Cloudy with Mist and Fog 31 -0.4 31 -0.4 100 100 SE 13 20 30.2 1023 1.25 2.011675 0 0
2:35 am 02:35 Cloudy with Mist and Fog 31 -0.3 31 -0.3 100 100 SE 10 17 30.21 1023 1.25 2.011675 0 0
2:55 am 02:55 Cloudy with Mist and Fog 32 -0.2 32 -0.2 100 100 SE 12 19 30.23 1024 0.75 1.207005 0 0
3:15 am 03:15 Cloudy with Mist and Fog 32 -0.2 32 -0.2 100 100 SE 12 19 30.23 1024 0.75 1.207005 0 0
3:35 am 03:35 Cloudy with Mist and Fog 32 -0.1 32 -0.1 100 100 SE 10 17 30.21 1023 0.75 1.207005 0 0
3:55 am 03:55 Cloudy with Mist and Fog 32 -0.1 32 -0.1 100 100 SE 12 19 30.2 1023 0.75 1.207005 0 0
4:15 am 04:15 Cloudy with Mist and Fog 32 -0.1 32 -0.1 100 100 SE 10 17 30.19 1022 1.25 2.011675 0 0
4:35 am 04:35 Cloudy with Mist and Fog 32 -0.1 32 -0.1 100 100 SE 13 20 30.17 1022 1.5 2.41401 0 0
4:55 am 04:55 Cloudy with Mist and Fog 32 -0.1 32 -0.1 100 100 SE 13 20 30.18 1022 1 1.60934 0 0
5:15 am 05:15 Cloudy with Mist and Fog 32 0 32 0 100 100 SE 13 20 30.19 1022 1 1.60934 0 0
5:35 am 05:35 Cloudy with Mist and Fog 32 0 32 0 100 100 SE 10 17 30.18 1022 0.75 1.207005 0 0
5:55 am 05:55 Cloudy with Mist and Fog 32 0 32 0 100 100 ESE 12 19 30.16 1021 0.75 1.207005 0 0
6:15 am 06:15 Cloudy with Mist and Fog 32 0 32 0 100 100 ESE 14 22 30.16 1021 1 1.60934 0 0
6:35 am 06:35 Cloudy with Mist and Fog 32 0 32 0 100 100 SE 12 19 30.16 1021 1 1.60934 0 0
6:55 am 06:55 Cloudy with Mist and Fog 32 0 32 0 100 100 ESE 10 17 30.16 1021 1 1.60934 0 0
7:15 am 07:15 Cloudy with Mist and Fog 32 0 32 0 100 100 ESE 10 17 30.16 1021 0.75 1.207005 0 0
7:35 am 07:35 Cloudy with Mist and Fog 32 0 32 0 100 100 SE 9 15 30.18 1022 0.75 1.207005 0 0
7:55 am 07:55 Cloudy with Mist and Fog 32 0 32 0 100 100 SE 10 17 30.18 1022 0.75 1.207005 0 0
8:15 am 08:15 Cloudy with Fog 32 0 32 0 100 100 SE 9 15 30.15 1021 0.5 0.80467 0 0
8:35 am 08:35 Cloudy with Mist and Fog 32 0.1 32 0.1 100 100 ESE 10 17 30.13 1020 0.75 1.207005 0 0
8:55 am 08:55 Cloudy with Fog 32 0.1 32 0.1 100 100 ESE 13 20 30.11 1020 0.5 0.80467 0 0
9:15 am 09:15 Cloudy with Fog 32 0 32 0 100 100 ESE 12 19 30.09 1019 0.25 0.402335 0 0
9:35 am 09:35 Cloudy with Light Snow 32 0.1 32 0.1 100 100 ESE 16 26 30.04 1017 0.25 0.402335 0 0
9:55 am 09:55 Cloudy with Fog 32 0.1 32 0.1 100 100 SE 15 24 30.07 1018 0.5 0.80467 0 0
10:15 am 10:15 Cloudy with Mist and Fog 32 0.2 32 0.2 100 100 SE 10 17 30.09 1019 1 1.60934 0 0
10:35 am 10:35 Cloudy with Light Snow 33 0.5 33 0.5 100 100 SE 13 20 30.13 1020 1.5 2.41401 0.03 0.762
10:55 am 10:55 Cloudy with Light Rain 33 0.5 33 0.5 100 100 SE 13 20 30.09 1019 2.5 4.02335 0.09 2.286
11:15 am 11:15 Cloudy with Light Rain 33 0.5 33 0.5 100 100 SE 10 17 30.07 1018 2.5 4.02335 0.04 1.016
11:35 am 11:35 Cloudy with Light Wintry Mix 33 0.5 33 0.5 100 100 SE 12 19 30.05 1018 4 6.43736 0.06 1.524
11:55 am 11:55 Cloudy 33 0.5 33 0.5 100 100 SE 9 15 30.05 1018 7 11.26538 0.06 1.524
12:15 pm 12:15 Cloudy with Light Rain 33 0.6 33 0.6 100 100 SE 13 20 30 1016 2.5 4.02335 0.02 0.508
12:35 pm 12:35 Cloudy with Light Rain 33 0.6 33 0.6 100 100 SE 18 30 30.02 1017 1 1.60934 0.03 0.762
12:55 pm 12:55 Cloudy with Light Rain 33 0.6 33 0.6 100 100 SE 17 28 30.01 1016 1 1.60934 0.03 0.762
1:15 pm 13:15 Cloudy with Light Rain 33 0.6 33 0.6 100 100 ESE 14 22 29.99 1016 0.75 1.207005 0 0
1:35 pm 13:35 Cloudy with Fog 33 0.6 33 0.6 100 100 SE 15 24 29.98 1015 0.25 0.402335 0 0
1:55 pm 13:55 Cloudy with Fog 33 0.6 33 0.6 100 100 ESE 14 22 29.96 1015 0.25 0.402335 0 0
2:15 pm 14:15 Cloudy with Fog 33 0.6 33 0.6 100 100 SE 9 15 29.97 1015 0.25 0.402335 0 0
2:35 pm 14:35 Cloudy with Fog 33 0.6 33 0.6 100 100 ESE 16 26 29.95 1014 N/A 0 0
2:55 pm 14:55 Cloudy with Fog 33 0.5 33 0.5 100 100 ESE 15 24 29.93 1014 N/A 0 0
3:15 pm 15:15 Windy with Snow Likely 33 0.6 33 0.6 100 100 ESE 20 31 29.91 1013 0.25 0.402335 0 0
3:35 pm 15:35 Cloudy 33 0.5 33 0.5 100 100 ESE 20 31 29.9 1013 0.25 0.402335 0 0
3:55 pm 15:55 Cloudy 33 0.5 33 0.5 100 100 ESE 16 26 29.91 1013 0.5 0.80467 0 0
4:15 pm 16:15 Cloudy with Nearby Thunderstorms 33 0.5 33 0.5 100 100 ESE 18 30 29.9 1013 1 1.60934 0 0
4:35 pm 16:35 Cloudy with Mist and Fog 33 0.5 33 0.5 100 100 ESE 20 31 29.89 1012 1 1.60934 0 0
4:55 pm 16:55 Cloudy with Light Snow 33 0.5 33 0.5 100 100 E 17 28 29.88 1012 1 1.60934 0 0
5:15 pm 17:15 Cloudy with Mist and Fog 33 0.5 33 0.5 100 100 E 22 35 29.85 1011 1.25 2.011675 0 0
5:35 pm 17:35 Windy with Snow Likely 33 0.5 33 0.5 100 100 ESE 21 33 29.85 1011 1.75 2.816345 0 0
5:55 pm 17:55 Cloudy with Mist and Fog 33 0.6 33 0.6 100 100 ESE 17 28 29.85 1011 1.5 2.41401 0 0
6:15 pm 18:15 Cloudy with Mist and Fog 33 0.6 33 0.6 100 100 ESE 22 35 29.84 1010 1.25 2.011675 0 0
6:35 pm 18:35 Cloudy with Mist and Fog 33 0.7 33 0.7 100 100 ESE 20 31 29.84 1010 1.25 2.011675 0 0
6:55 pm 18:55 Cloudy with Light Snow 33 0.8 33 0.8 100 100 ESE 18 30 29.83 1010 1 1.60934 0 0
7:15 pm 19:15 Cloudy with Mist and Fog 33 0.8 33 0.8 100 100 ESE 18 30 29.82 1010 1.25 2.011675 0 0
7:35 pm 19:35 Cloudy with Light Snow 33 0.8 33 0.8 100 100 ESE 18 30 29.81 1009 1.25 2.011675 0 0
7:55 pm 19:55 Cloudy with Mist and Fog 33 0.8 33 0.8 100 100 ESE 17 28 29.78 1008 1.25 2.011675 0 0
8:15 pm 20:15 Cloudy with Nearby Thunderstorms 34 1 34 1 100 100 ESE 17 28 29.76 1008 1.25 2.011675 0 0
8:35 pm 20:35 Cloudy with Light Snow 34 1 34 1 100 100 ESE 17 28 29.75 1008 1.25 2.011675 0 0
8:55 pm 20:55 Cloudy with Mist and Fog 34 1 34 1 100 100 SE 13 20 29.77 1008 1 1.60934 0 0
9:15 pm 21:15 Cloudy with Light Snow 34 1 34 1 100 100 ESE 17 28 29.73 1007 1 1.60934 0 0
9:35 pm 21:35 Cloudy with Light Snow 34 1.1 34 1.1 100 100 ESE 18 30 29.7 1006 1 1.60934 0 0
9:55 pm 21:55 Cloudy with Mist and Fog 34 1.3 34 1.3 100 100 ESE 17 28 29.69 1005 1 1.60934 0 0
10:15 pm 22:15 Cloudy with Mist and Fog 35 1.5 35 1.5 100 100 SE 17 28 29.69 1005 1 1.60934 0 0
10:35 pm 22:35 Cloudy with Fog 35 1.5 35 1.5 100 100 SE 18 30 29.68 1005 0.5 0.80467 0 0
10:55 pm 22:55 Cloudy with Fog 35 1.5 35 1.5 100 100 SE 18 30 29.64 1004 0.5 0.80467 0 0
11:15 pm 23:15 Cloudy with Light Snow 35 1.7 35 1.7 100 100 SE 18 30 29.63 1003 0.75 1.207005 0 0
11:35 pm 23:35 Cloudy with Mist and Fog 36 2 36 2 100 100 SE 22 35 29.62 1003 0.75 1.207005 0 0
11:55 pm 23:55 Cloudy with Fog 36 2 36 2 100 100 SE 18 30 29.6 1003 0.5 0.80467 0 0

Powered by AerisWeather